Regional Weather Roundup
Issued by NWS

Home | Current Version | Previous Version | Graphics & Text | Print | Product List | Glossary On
Versions: 1 2 3 4 5 6 7 8 9 10 11 12 13 14 15 16 17 18 19 20 21 22 23 24 25 26 27 28 29 30 31 32 33 34 35 36 37 38 39 40 41 42 43 44 45 46 47 48 49 50
000
ASUS43 KMKX 230959
RWRWI

WISCONSIN REGIONAL WEATHER ROUNDUP
NATIONAL WEATHER SERVICE MILWAUKEE/SULLIVAN WI
500 AM CDT MON APR 23 2018

NOTE: "FAIR" INDICATES FEW OR NO CLOUDS BELOW 12,000 FEET WITH NO
SIGNIFICANT WEATHER AND/OR OBSTRUCTIONS TO VISIBILITY.

WIZ001-002-006>008-014>016-023>028-231100-
NORTHWEST WISCONSIN

CITY           SKY/WX    TMP DP  RH WIND       PRES   REMARKS
SUPERIOR ARPT  FAIR      28  25  88 CALM      30.23S
ASHLAND        FAIR      39  23  52 CALM      30.24S
HAYWARD        FAIR      28  25  88 N3        30.25R
SIREN          FAIR      32  27  83 CALM      30.25R
CUMBERLAND     FAIR      32  27  80 CALM      30.25S
RICE LAKE      FAIR      35  26  71 CALM      30.27S
CHETEK         FAIR      30  27  89 CALM      30.27R
LADYSMITH      FAIR      32  26  78 CALM      30.28S
EAU CLAIRE     NOT AVBL
MENOMONIE      FAIR      34  31  89 CALM      30.27R
NEW RICHMOND   FAIR      34  31  89 CALM      30.25S
OSCEOLA        FAIR      33  30  91 CALM      30.28S
$$

WIZ003>005-009-010-017-018-231100-
NORTH CENTRAL WISCONSIN

CITY           SKY/WX    TMP DP  RH WIND       PRES   REMARKS
MANITOWISH WTR FAIR      27  27  99 CALM      30.25F
ARBOR VITAE    FAIR      32  23  70 CALM      30.26S
WOODRUFF       FAIR      32  23  70 CALM      30.26S
RHINELANDER    FAIR      28  21  75 CALM      30.27S
EAGLE RIVER    FAIR      27  21  76 CALM      30.27S
LAND O LAKES   FAIR      25  22  87 CALM      30.28F
PHILLIPS       FAIR      28  24  85 CALM      30.26S
TOMAHAWK       FAIR      26  20  80 CALM      30.28S
MEDFORD        FAIR      30  24  77 CALM      30.26S
MERRILL          N/A     26  23  89 CALM      30.28S
$$

WIZ029-030-035-036-043>047-231100-
CENTRAL WISCONSIN

CITY           SKY/WX    TMP DP  RH WIND       PRES   REMARKS
WAUSAU         FAIR      30  24  78 CALM      30.26S
MOSINEE        FAIR      36  27  69 CALM      30.28S
MARSHFIELD     FAIR      37  24  59 CALM      30.26R
STEVENS POINT  FAIR      27  23  87 CALM      30.28S
WAUPACA        FAIR      31  28  87 CALM      30.29S
WAUTOMA        FAIR      27  25  92 CALM      30.28F
WISC RAPIDS    FAIR      33  24  69 CALM      30.28S
CAMP DOUGLAS   FAIR      26  25  98 CALM      30.26F
$$

WIZ011>013-019>022-031-037>040-048>050-231100-
NORTHEAST WISCONSIN

CITY           SKY/WX    TMP DP  RH WIND       PRES   REMARKS
ANTIGO         FAIR      33  26  73 CALM      30.28S
SHAWANO        FAIR      31  27  85 CALM      30.29S
OCONTO         FAIR      28  26  93 CALM      30.29S
STURGEON BAY   FAIR      40  18  41 E6        30.30S
GREEN BAY      FAIR      31  26  82 CALM      30.29S
MANITOWOC      FAIR      32  28  85 CALM      30.30R
APPLETON       FAIR      37  19  48 NE3       30.27S
CLINTONVILLE   FAIR      30  26  83 CALM      30.29S
OSHKOSH        FAIR      37  28  70 N3        30.27S
$$

WIZ032>034-041-042-053>061-231100-
SOUTHWEST WISCONSIN

CITY           SKY/WX    TMP DP  RH WIND       PRES   REMARKS
LA CROSSE      FAIR      38  29  70 CALM      30.26S
SPARTA         FAIR      28  24  87 CALM      30.28S
VIROQUA        FAIR      39  29  67 E7        30.24F WCI  34
BOSCOBEL       FAIR      33  30  88 N3        30.26R
PRAIRIE DU CHI FAIR      37  31  78 CALM      30.25S
PLATTEVILLE    FAIR      42  29  58 E10       30.23S
$$

WIZ056-057-062-063-064-067-068-231100-
SOUTH CENTRAL WISCONSIN

CITY           SKY/WX    TMP DP  RH WIND       PRES   REMARKS
REEDSBURG      FAIR      33  32  95 CALM      30.26S
BARABOO/DELLS  FAIR      31  27  83 CALM      30.26S
LONE ROCK      FAIR      31  29  92 CALM      30.26S
MINERAL POINT  FAIR      45  27  49 E7        30.23F
MADISON        FAIR      33  26  75 N3        30.25S
MIDDLETON      FAIR      35  31  85 CALM      30.25S
WATERTOWN      FAIR      35  25  66 CALM      30.25S
MONROE         FAIR      39  25  56 NE7       30.23S WCI  34
JANESVILLE     FAIR      37  28  70 NE6       30.24R WCI  33
$$

WIZ051-052-058>065-066-070>072-231100-
SOUTHEAST WISCONSIN

CITY           SKY/WX    TMP DP  RH WIND       PRES   REMARKS
MILWAUKEE      FAIR      40  31  70 CALM      30.26S
WAUKESHA       FAIR      36  23  60 CALM      30.27S
MILWAUKEE/TIMM FAIR      34  23  64 NE3       30.27S
RACINE         FAIR      37  32  82 N6        30.27R WCI  32
BURLINGTON     FAIR      35  26  69 CALM      30.25R
KENOSHA        FAIR      39  29  67 N3        30.25R
FOND DU LAC    FAIR      36  26  67 NE3       30.27S
SHEBOYGAN      FAIR      33  28  81 NE3       30.28S
WEST BEND      FAIR      30  28  93 CALM      30.27S
JUNEAU         FAIR      39  22  49 NE5       30.26F
$$

LSZ147-162-231100-
LAKE SUPERIOR

STATION/POSITION TIME  TEMP    WIND        PRES    WAVE
                       AIR SEA DIR/SP/G            HT/PER
                 (UTC) (F)     (DEG/KT/KT) (MB)    (FT/S)
DEVILS ISLAND    0900   41     220/  9/ 10 1024.2R
SAXON HARBOR     0930   44     190/  7/ 10 1023.0S
$$

LMZ867-665-643>646-231100-
LAKE MICHIGAN

STATION/POSITION TIME  TEMP    WIND        PRES    WAVE
                       AIR SEA DIR/SP/G            HT/PER
                 (UTC) (F)     (DEG/KT/KT) (MB)    (FT/S)
NORTHPORT PIER   0940   33                 1025.7S
KEWAUNEE LAKESHO 0930   30     300/  2/  3 1025.0R
SHEBOYGAN LAKESH 0900   42      10/  7/  8 1025.8R
PORT WASHINGTON  0940   38     310/  2/  3 1026.1S
MILWAUKEE LAKESH 0930   42      10/  5/  6   N/A
KENOSHA   LAKESH 0900   41                 1024.0
$$

TC  - TEMPERATURE IN CELSIUS
VSB - VISIBILITY IN STATUTE MILES
WCI - WIND CHILL INDEX
HX  - HEAT INDEX




USA.gov is the U.S. government's official web portal to all federal, state and local government web resources and services.